Volver al catálogo

STARLINK-37419

ActivoComunicacionesVLEO
NORAD 69197·PAYLOAD·🇺🇸 United States

Lanzado May 25, 2026 desde Cape Canaveral Space Force Station

Loading…

Próximos Pases (próximas 24 horas)

TLE

ActualizadoSource: CelesTrak SupGP

Época: Sep 14, 2026, 22:34 UTC

1 69197C 26114R   26257.94076389 -.00098652  00000+0 -29139-2 0  2578
2 69197  53.1570 139.6956 0001358  88.2355 241.5782 15.34448674    18

Sigue STARLINK-37419 en tiempo real con AllMySat

Download on the App Store